| time (UTC) | temp C | wind direction | speed KPH | gust KPH | rain 1hr cm | rain 24hr cm | rain mn cm | humidity % | barometer mb |
| 20260505031509 | 10 | 267 | 0.0 | 0.0 | 0.00 | 0.00 | 0.00 | 85 | 1012.6 |
| 20260505030106 | 10 | 267 | 0.0 | 0.0 | 0.00 | 0.00 | 0.00 | 84 | 1012.5 |
| 20260505024505 | 10 | 267 | 0.0 | 0.0 | 0.00 | 0.00 | 0.00 | 82 | 1012.6 |
| 20260505023005 | 11 | 267 | 0.0 | 0.0 | 0.00 | 0.00 | 0.00 | 81 | 1012.6 |
| 20260505021503 | 11 | 267 | 0.0 | 0.0 | 0.00 | 0.00 | 0.00 | 79 | 1012.7 |
| 20260505020003 | 11 | 267 | 0.0 | 0.0 | 0.00 | 0.00 | 0.00 | 78 | 1012.6 |
| 20260505014504 | 11 | 267 | 0.0 | 0.0 | 0.00 | 0.00 | 0.00 | 77 | 1012.6 |
| 20260505013002 | 12 | 267 | 0.0 | 0.0 | 0.00 | 0.00 | 0.00 | 76 | 1012.4 |
| 20260505011502 | 12 | 267 | 0.0 | 0.0 | 0.00 | 0.00 | 0.00 | 74 | 1012.4 |
| 20260505010000 | 13 | 267 | 0.0 | 0.0 | 0.00 | 0.00 | 0.00 | 71 | 1012.1 |
| 20260505004612 | 13 | 267 | 0.0 | 0.0 | 0.00 | 0.00 | 0.00 | 68 | 1011.9 |
| 20260505003100 | 14 | 267 | 0.0 | 3.2 | 0.00 | 0.00 | 0.00 | 65 | 1011.6 |
| 20260505001629 | 15 | 262 | 0.0 | 4.8 | 0.00 | 0.00 | 0.00 | 63 | 1011.4 |
| 20260505001502 | 15 | 262 | 0.0 | 4.8 | 0.00 | 0.00 | 0.00 | 62 | 1011.5 |
| 20260505000110 | 15 | 281 | 1.6 | 6.4 | 0.00 | 0.00 | 0.00 | 61 | 1011.3 |
| 20260504234601 | 15 | 97 | 0.0 | 11.3 | 0.00 | 0.00 | 0.00 | 60 | 1011.1 |
| 20260504233112 | 16 | 265 | 0.0 | 4.8 | 0.00 | 0.00 | 0.00 | 57 | 1010.8 |
| 20260504231559 | 16 | 266 | 1.6 | 12.9 | 0.00 | 0.00 | 0.00 | 55 | 1010.7 |
| 20260504230059 | 16 | 262 | 1.6 | 12.9 | 0.00 | 0.00 | 0.00 | 53 | 1010.6 |
| 20260504224556 | 17 | 263 | 1.6 | 11.3 | 0.00 | 0.00 | 0.00 | 52 | 1010.5 |
| 20260504223055 | 17 | 167 | 3.2 | 14.5 | 0.00 | 0.00 | 0.00 | 49 | 1010.6 |
| 20260504221554 | 18 | 263 | 0.0 | 14.5 | 0.00 | 0.00 | 0.00 | 49 | 1010.8 |
| 20260504220054 | 18 | 263 | 1.6 | 11.3 | 0.00 | 0.00 | 0.00 | 50 | 1010.7 |
| 20260504214555 | 18 | 270 | 1.6 | 9.7 | 0.00 | 0.00 | 0.00 | 49 | 1010.7 |
| 20260504213053 | 18 | 267 | 3.2 | 12.9 | 0.00 | 0.00 | 0.00 | 48 | 1010.9 |
| 20260504211551 | 19 | 267 | 1.6 | 14.5 | 0.00 | 0.00 | 0.00 | 48 | 1010.8 |
| 20260504210052 | 19 | 281 | 3.2 | 14.5 | 0.00 | 0.00 | 0.00 | 48 | 1010.8 |
| 20260504204553 | 20 | 262 | 3.2 | 16.1 | 0.00 | 0.00 | 0.00 | 44 | 1010.7 |
| 20260504203055 | 20 | 223 | 3.2 | 17.7 | 0.00 | 0.00 | 0.00 | 38 | 1010.6 |
| 20260504201547 | 21 | 271 | 3.2 | 9.7 | 0.00 | 0.00 | 0.00 | 38 | 1010.6 |
| 20260504200046 | 21 | 263 | 1.6 | 16.1 | 0.00 | 0.00 | 0.00 | 35 | 1010.7 |
| 20260504194548 | 22 | 286 | 1.6 | 12.9 | 0.00 | 0.00 | 0.00 | 35 | 1010.8 |
| 20260504193042 | 22 | 269 | 3.2 | 24.1 | 0.00 | 0.00 | 0.00 | 35 | 1010.9 |
| 20260504191549 | 22 | 282 | 1.6 | 19.3 | 0.00 | 0.00 | 0.00 | 36 | 1011.1 |
| 20260504190039 | 22 | 286 | 4.8 | 17.7 | 0.00 | 0.00 | 0.00 | 35 | 1011.3 |
| 20260504184537 | 22 | 284 | 1.6 | 12.9 | 0.00 | 0.00 | 0.00 | 34 | 1011.4 |
| 20260504183034 | 22 | 55 | 3.2 | 12.9 | 0.00 | 0.00 | 0.00 | 32 | 1011.5 |
| 20260504181532 | 22 | 261 | 1.6 | 9.7 | 0.00 | 0.00 | 0.00 | 36 | 1011.8 |
| 20260504180030 | 21 | 315 | 1.6 | 12.9 | 0.00 | 0.00 | 0.00 | 34 | 1012.1 |
| 20260504174526 | 21 | 204 | 1.6 | 17.7 | 0.00 | 0.00 | 0.00 | 36 | 1012.2 |
| 20260504173023 | 21 | 284 | 1.6 | 11.3 | 0.00 | 0.00 | 0.00 | 36 | 1012.4 |
| 20260504171530 | 21 | 282 | 4.8 | 14.5 | 0.00 | 0.00 | 0.00 | 34 | 1012.5 |
| 20260504100104 | 5 | 241 | 0.0 | 0.0 | 0.00 | 0.00 | 0.00 | 80 | 1015.2 |
| 20260504090106 | 5 | 16 | 0.0 | 0.0 | 0.00 | 0.00 | 0.00 | 86 | 1014.9 |
| 20260504081550 | 3 | 336 | 0.0 | 0.0 | 0.00 | 0.00 | 0.00 | 90 | 1014.6 |
| 20260504050024 | 3 | 331 | 0.0 | 0.0 | 0.00 | 0.00 | 0.00 | 85 | 1014.1 |
| 20260504044524 | 3 | 331 | 0.0 | 0.0 | 0.00 | 0.00 | 0.00 | 83 | 1014.0 |
| 20260504043030 | 3 | 331 | 0.0 | 0.0 | 0.00 | 0.00 | 0.00 | 83 | 1014.0 |
| 20260504041521 | 3 | 331 | 0.0 | 0.0 | 0.00 | 0.00 | 0.00 | 82 | 1013.8 |
| 20260504040018 | 3 | 331 | 0.0 | 0.0 | 0.00 | 0.00 | 0.00 | 81 | 1013.8 |
| 20260504034513 | 4 | 331 | 0.0 | 0.0 | 0.00 | 0.00 | 0.00 | 79 | 1013.9 |
| 20260504033014 | 4 | 331 | 0.0 | 0.0 | 0.00 | 0.00 | 0.00 | 78 | 1013.8 |